Weather History for Honolulu, HI

Change the Weather History Date:

Saturday, April 5, 2014

  Actual Average Record
Temperature  
Mean Temperature 75 °F 76 °F  
Max Temperature 83 °F 82 °F 86 °F (2004)
Min Temperature 67 °F 69 °F 61 °F (1966)
Degree Days  
Heating Degree Days 0 0  
Month to date heating degree days 0 0  
Since 1 July heating degree days 0 0  
Cooling Degree Days 10 11  
Month to date cooling degree days 68 55  
Year to date cooling degree days 896 830  
Growing Degree Days 24 (Base 50)    
Moisture  
Dew Point 63 °F    
Average Humidity 68    
Maximum Humidity 84    
Minimum Humidity 51    
Precipitation  
Precipitation 0.00 in 0.03 in 0.15 in (1965)
Month to date precipitation 0.03 0.18  
Year to date precipitation 6.32 6.50  
Snow  
Snow 0.00 in - - ()
Month to date snowfall 0.0  
Since 1 July snowfall 0.0  
Snow Depth 0.00 in    
Sea Level Pressure  
Sea Level Pressure 30.00 in    
Wind  
Wind Speed 6 mph (WNW)    
Max Wind Speed 15 mph    
Max Gust Speed 20 mph    
Visibility 10 miles    
Events      
T = Trace of Precipitation, MM = Missing Value Source: NWS Daily Summary

Daily Weather History Graph

Daily Weather History Graph

Search for Another Location

Airport:

Trip Planner

Search our weather history database for the weather conditions in past years. The results will help you decide how hot, cold, wet, or windy it might be!

Date:

Astronomy

Apr. 05, 2014 Rise Set
Actual Time 6:20 AM HST 6:47 PM HST
Civil Twilight 5:58 AM HST 7:10 PM HST
Nautical Twilight 5:32 AM HST 7:36 PM HST
Astronomical Twilight 5:05 AM HST 8:02 PM HST
Moon 11:03 AM HST (4/5) No Moon Set
Length of Visible Light 13h 11m
Length of Day
12h 26m
Waxing Crescent, 36% of the Moon is Illuminated
Apr 5
Waxing Crescent
Apr 6
First Quarter
Apr 14
Full
Apr 21
Last Quarter
Apr 28
New

Hourly Weather History & Observations

Time (HST) Temp. Heat Index Dew Point Humidity Pressure Visibility Wind Dir Wind Speed Gust Speed Precip Events Conditions
12:53 AM 73.0 °F - 63.0 °F 71% 30.03 in 10.0 mi Calm Calm - N/A   Partly Cloudy
1:53 AM 71.1 °F - 63.0 °F 75% 30.01 in 10.0 mi NNW 4.6 mph - N/A   Scattered Clouds
2:53 AM 71.1 °F - 63.0 °F 75% 29.99 in 10.0 mi NNW 3.5 mph - N/A   Partly Cloudy
3:53 AM 70.0 °F - 63.0 °F 78% 29.99 in 10.0 mi North 4.6 mph - N/A   Partly Cloudy
4:53 AM 68.0 °F - 63.0 °F 84% 29.99 in 10.0 mi Calm Calm - N/A   Clear
5:53 AM 68.0 °F - 62.1 °F 81% 29.98 in 10.0 mi North 5.8 mph - N/A   Partly Cloudy
6:53 AM 70.0 °F - 64.0 °F 81% 30.00 in 10.0 mi NNW 5.8 mph - N/A   Scattered Clouds
7:53 AM 73.9 °F - 64.0 °F 71% 30.01 in 10.0 mi NNW 6.9 mph - N/A   Scattered Clouds
8:53 AM 78.1 °F - 64.0 °F 62% 30.02 in 10.0 mi NNW 3.5 mph - N/A   Scattered Clouds
9:53 AM 79.0 °F - 62.1 °F 56% 30.01 in 10.0 mi South 3.5 mph - N/A   Scattered Clouds
10:53 AM 81.0 °F 81.7 °F 61.0 °F 50% 30.02 in 10.0 mi South 8.1 mph - N/A   Scattered Clouds
11:53 AM 81.0 °F 82.2 °F 63.0 °F 54% 30.02 in 10.0 mi South 10.4 mph - N/A   Scattered Clouds
12:53 PM 81.0 °F 82.5 °F 64.0 °F 56% 29.99 in 10.0 mi SSW 8.1 mph - N/A   Scattered Clouds
1:53 PM 81.0 °F 82.7 °F 64.9 °F 58% 29.97 in 10.0 mi SSW 11.5 mph - N/A   Scattered Clouds
2:53 PM 81.0 °F 82.7 °F 64.9 °F 58% 29.96 in 10.0 mi SW 11.5 mph - N/A   Scattered Clouds
3:53 PM 80.1 °F 82.1 °F 66.0 °F 62% 29.94 in 10.0 mi SW 13.8 mph - N/A   Mostly Cloudy
4:53 PM 80.1 °F 82.1 °F 66.0 °F 62% 29.95 in 10.0 mi SW 15.0 mph - N/A   Scattered Clouds
5:53 PM 80.1 °F 81.5 °F 63.0 °F 56% 29.96 in 10.0 mi WSW 11.5 mph - N/A   Partly Cloudy
6:53 PM 78.1 °F - 64.0 °F 62% 29.99 in 10.0 mi NNW 13.8 mph - N/A   Scattered Clouds
7:53 PM 75.9 °F - 63.0 °F 64% 30.00 in 10.0 mi Variable 6.9 mph - N/A   Scattered Clouds
8:53 PM 75.0 °F - 63.0 °F 66% 30.02 in 10.0 mi NE 4.6 mph - N/A   Scattered Clouds
9:53 PM 73.9 °F - 63.0 °F 68% 30.04 in 10.0 mi North 3.5 mph - N/A   Partly Cloudy
10:53 PM 73.9 °F - 62.1 °F 66% 30.04 in 10.0 mi NNE 3.5 mph - N/A   Partly Cloudy
11:53 PM 72.0 °F - 61.0 °F 68% 30.04 in 10.0 mi Calm Calm - N/A   Partly Cloudy